sat.trackr.live / text

‹ back to catalog

ONEWEB-0118

NORAD 47264 · 2020-100G

PAYLOAD ACTIVE UNKNOWN

§ Identity

Operator
Country
UK
Launch date
2020-12-18
Launch site
VOSTO
Launch vehicle
Mass (kg)
RCS (m²)

Purposes: comms

External: N2YO · Heavens-Above · Gunter

§ Orbital elements

Epoch: 2026-05-25T01:54:57.158208Z

Period
109.72 min
Inclination
87.8959°
Eccentricity
0.0001930
Mean motion
13.12442084 rev/d
Perigee alt
1,212.3 km
Apogee alt
1,215.2 km
Semi-major
7,591.9 km
B*
-1.0717e-3
RAAN
355.2478°
Arg perigee
96.0373°
Mean anomaly
264.0976°
Rev number
26,169

§ Raw data

ONEWEB-01181 47264U 20100G   26145.07982822 -.00000373  00000+0 -10717-2 0  99942 47264  87.8959 355.2478 0001930  96.0373 264.0976 13.12442084261693

JSON: /api/v1/satellites/47264 · /tle

For live sub-satellite position, see the globe view (requires WebGL).

§ Visibility from observer

Set your observer location to see the next 7 days of passes ≥ 10°. The values pass through the URL so the page stays shareable.

No JS? Fill the form by hand. The geolocation button needs JavaScript.